Weather History for Thermopolis, WY

Change the Weather History Date:

Monday, October 7, 2013

  Actual Average (KWRL) Record (KWRL)
Temperature  
Mean Temperature 45 °F 49 °F  
Max Temperature 53 °F 64 °F 82 °F (1980)
Min Temperature 37 °F 34 °F 22 °F (1985)
Degree Days  
Heating Degree Days 20 16  
Month to date heating degree days 104  
Since 1 July heating degree days 361  
Cooling Degree Days 0 0  
Month to date cooling degree days 0  
Year to date cooling degree days 535  
Moisture  
Dew Point 33 °F    
Average Humidity 65    
Maximum Humidity 93    
Minimum Humidity 35    
Precipitation  
Precipitation 0.00 in 0.03 in 1.22 in (1993)
Month to date precipitation 0.22  
Year to date precipitation 6.52  
Sea Level Pressure  
Sea Level Pressure 30.16 in    
Wind  
Wind Speed 13 mph (SE)    
Max Wind Speed 24 mph    
Max Gust Speed 26 mph    
Visibility 10 miles    
Events      
T = Trace of Precipitation, MM = Missing Value Source: NWS Daily Summary

Daily Weather History Graph

Daily Weather History Graph

Search for Another Location

Airport:

Trip Planner

Search our weather history database for the weather conditions in past years. The results will help you decide how hot, cold, wet, or windy it might be!

Date:

Astronomy

Oct. 07, 2013 Rise Set
Actual Time 7:17 AM MDT 6:42 PM MDT
Civil Twilight 6:49 AM MDT 7:11 PM MDT
Nautical Twilight 6:16 AM MDT 7:44 PM MDT
Astronomical Twilight 5:42 AM MDT 8:17 PM MDT
Moon 10:16 AM MDT (10/7) 8:24 PM MDT (10/7)
Length of Visible Light 12h 22m
Length of Day
11h 25m
Waxing Crescent, 9% of the Moon is Illuminated
Oct 7
Waxing Crescent
Oct 11
First Quarter
Oct 18
Full
Oct 26
Last Quarter
Nov 3
New

Hourly Weather History & Observations

Time (MDT) Temp. Windchill Dew Point Humidity Pressure Visibility Wind Dir Wind Speed Gust Speed Precip Events Conditions
12:15 AM 42.8 °F 35.8 °F 33.8 °F 70% 30.31 in 10.0 mi South 13.8 mph - N/A   Clear
12:35 AM 42.8 °F 35.8 °F 33.8 °F 70% 30.31 in 10.0 mi South 13.8 mph - N/A   Clear
12:55 AM 42.8 °F 36.2 °F 35.6 °F 76% 30.31 in 10.0 mi South 12.7 mph - N/A   Clear
1:15 AM 42.8 °F 36.6 °F 35.6 °F 76% 30.31 in 10.0 mi South 11.5 mph - N/A   Clear
1:35 AM 42.8 °F 37.0 °F 35.6 °F 76% 30.30 in 10.0 mi South 10.4 mph - N/A   Clear
1:55 AM 42.8 °F 37.0 °F 35.6 °F 76% 30.30 in 10.0 mi South 10.4 mph - N/A   Clear
2:15 AM 41.0 °F 35.2 °F 35.6 °F 81% 30.29 in 10.0 mi South 9.2 mph - N/A   Clear
2:35 AM 42.8 °F 37.5 °F 33.8 °F 70% 30.29 in 10.0 mi South 9.2 mph - N/A   Clear
2:55 AM 42.8 °F 38.0 °F 33.8 °F 70% 30.28 in 10.0 mi South 8.1 mph - N/A   Clear
3:15 AM 42.8 °F 38.0 °F 32.0 °F 66% 30.28 in 10.0 mi South 8.1 mph - N/A   Clear
3:35 AM 41.0 °F 34.7 °F 35.6 °F 81% 30.27 in 10.0 mi South 10.4 mph - N/A   Clear
3:55 AM 41.0 °F 35.2 °F 37.4 °F 87% 30.26 in 10.0 mi SSE 9.2 mph - N/A   Clear
4:15 AM 39.2 °F 33.0 °F 35.6 °F 87% 30.26 in 10.0 mi SSE 9.2 mph - N/A   Clear
4:35 AM 41.0 °F 35.8 °F 33.8 °F 76% 30.26 in 10.0 mi SSE 8.1 mph - N/A   Clear
4:55 AM 39.2 °F 32.0 °F 33.8 °F 81% 30.25 in 10.0 mi SE 11.5 mph - N/A   Clear
5:15 AM 37.4 °F 30.3 °F 33.8 °F 87% 30.25 in 10.0 mi SE 10.4 mph - N/A   Clear
5:35 AM 37.4 °F 30.3 °F 33.8 °F 87% 30.25 in 10.0 mi SE 10.4 mph - N/A   Clear
5:55 AM 37.4 °F 29.3 °F 35.6 °F 93% 30.24 in 10.0 mi SE 12.7 mph - N/A   Clear
6:15 AM 37.4 °F 29.8 °F 33.8 °F 87% 30.24 in 10.0 mi SSE 11.5 mph - N/A   Clear
6:35 AM 39.2 °F 29.3 °F 33.8 °F 81% 30.23 in 10.0 mi SSE 20.7 mph - N/A   Clear
6:55 AM 39.2 °F 29.0 °F 32.0 °F 75% 30.23 in 10.0 mi South 21.9 mph 26.5 mph N/A   Clear
7:15 AM 41.0 °F 32.2 °F 28.4 °F 61% 30.23 in 10.0 mi SSE 18.4 mph - N/A   Clear
7:35 AM 37.4 °F 30.3 °F 32.0 °F 81% 30.23 in 10.0 mi SSE 10.4 mph - N/A   Clear
7:55 AM 39.2 °F 33.0 °F 30.2 °F 70% 30.23 in 10.0 mi SSE 9.2 mph - N/A   Clear
8:15 AM 37.4 °F 28.9 °F 30.2 °F 75% 30.23 in 10.0 mi SE 13.8 mph 19.6 mph N/A   Clear
8:35 AM 37.4 °F 28.9 °F 30.2 °F 75% 30.22 in 10.0 mi SE 13.8 mph - N/A   Clear
8:55 AM 37.4 °F 28.2 °F 30.2 °F 75% 30.22 in 10.0 mi SE 16.1 mph - N/A   Clear
9:15 AM 37.4 °F 27.8 °F 30.2 °F 75% 30.21 in 10.0 mi SE 17.3 mph - N/A   Clear
9:35 AM 37.4 °F 27.5 °F 30.2 °F 75% 30.21 in 10.0 mi SE 18.4 mph - N/A   Clear
9:55 AM 39.2 °F 30.2 °F 32.0 °F 75% 30.22 in 10.0 mi SE 17.3 mph - N/A   Clear
10:15 AM 41.0 °F 33.1 °F 30.2 °F 65% 30.22 in 10.0 mi SE 15.0 mph - N/A   Clear
10:35 AM 41.0 °F 32.8 °F 30.2 °F 65% 30.21 in 10.0 mi SE 16.1 mph - N/A   Clear
10:55 AM 41.0 °F 31.9 °F 30.2 °F 65% 30.20 in 10.0 mi SE 19.6 mph - N/A   Clear
11:15 AM 41.0 °F 32.5 °F 30.2 °F 65% 30.19 in 10.0 mi SE 17.3 mph - N/A   Clear
11:35 AM 41.0 °F 32.2 °F 30.2 °F 65% 30.19 in 10.0 mi SE 18.4 mph - N/A   Clear
11:55 AM 41.0 °F 31.6 °F 30.2 °F 65% 30.17 in 10.0 mi SE 20.7 mph - N/A   Clear
12:15 PM 41.0 °F 30.9 °F 32.0 °F 70% 30.16 in 10.0 mi SE 24.2 mph - N/A   Clear
12:35 PM 44.6 °F 35.9 °F 32.0 °F 61% 30.15 in 10.0 mi SE 23.0 mph - N/A   Clear
12:55 PM 42.8 °F 34.8 °F 32.0 °F 66% 30.14 in 10.0 mi SSE 17.3 mph - N/A   Scattered Clouds
1:15 PM 42.8 °F 34.3 °F 32.0 °F 66% 30.14 in 10.0 mi SE 19.6 mph 25.3 mph N/A   Scattered Clouds
1:35 PM 42.8 °F 34.3 °F 32.0 °F 66% 30.13 in 10.0 mi SE 19.6 mph 23.0 mph N/A   Clear
1:55 PM 42.8 °F 33.8 °F 32.0 °F 66% 30.12 in 10.0 mi SE 21.9 mph 25.3 mph N/A   Clear
2:15 PM 42.8 °F 34.3 °F 32.0 °F 66% 30.11 in 10.0 mi SE 19.6 mph - N/A   Clear
2:35 PM 42.8 °F 34.5 °F 32.0 °F 66% 30.12 in 10.0 mi SE 18.4 mph - N/A   Clear
2:55 PM 44.6 °F 37.2 °F 33.8 °F 66% 30.11 in 10.0 mi SE 17.3 mph - N/A   Clear
3:15 PM 44.6 °F 36.9 °F 33.8 °F 66% 30.11 in 10.0 mi SE 18.4 mph - N/A   Scattered Clouds
3:35 PM 46.4 °F 39.5 °F 33.8 °F 62% 30.10 in 10.0 mi SE 17.3 mph - N/A   Clear
3:55 PM 46.4 °F 40.4 °F 33.8 °F 62% 30.10 in 10.0 mi SE 13.8 mph - N/A   Clear
4:15 PM 50.0 °F - 33.8 °F 54% 30.09 in 10.0 mi SE 15.0 mph - N/A   Clear
4:35 PM 51.8 °F - 33.8 °F 50% 30.08 in 10.0 mi SE 12.7 mph - N/A   Clear
4:55 PM 50.0 °F - 32.0 °F 50% 30.08 in 10.0 mi SE 16.1 mph - N/A   Clear
5:15 PM 51.8 °F - 32.0 °F 47% 30.07 in 10.0 mi SE 16.1 mph - N/A   Clear
5:35 PM 51.8 °F - 32.0 °F 47% 30.06 in 10.0 mi SE 18.4 mph - N/A   Clear
5:55 PM 51.8 °F - 32.0 °F 47% 30.06 in 10.0 mi SE 15.0 mph 23.0 mph N/A   Clear
6:15 PM 50.0 °F - 32.0 °F 50% 30.06 in 10.0 mi SE 15.0 mph - N/A   Clear
6:35 PM 50.0 °F - 32.0 °F 50% 30.05 in 10.0 mi SE 18.4 mph - N/A   Clear
6:55 PM 50.0 °F - 32.0 °F 50% 30.05 in 10.0 mi SE 16.1 mph - N/A   Clear
7:15 PM 48.2 °F - 32.0 °F 54% 30.06 in 10.0 mi SSE 8.1 mph - N/A   Clear
7:35 PM 50.0 °F - 32.0 °F 50% 30.06 in 10.0 mi SE 9.2 mph - N/A   Clear
7:55 PM 50.0 °F - 32.0 °F 50% 30.06 in 10.0 mi SE 9.2 mph - N/A   Clear
8:15 PM 51.8 °F - 32.0 °F 47% 30.06 in 10.0 mi SE 9.2 mph - N/A   Clear
8:35 PM 53.6 °F - 26.6 °F 35% 30.05 in 10.0 mi South 10.4 mph - N/A   Clear
8:55 PM 51.8 °F - 32.0 °F 47% 30.05 in 10.0 mi SE 11.5 mph - N/A   Clear
9:15 PM 50.0 °F - 33.8 °F 54% 30.05 in 10.0 mi SE 9.2 mph - N/A   Clear
9:35 PM 51.8 °F - 32.0 °F 47% 30.05 in 10.0 mi ESE 8.1 mph - N/A   Clear
9:55 PM 51.8 °F - 32.0 °F 47% 30.05 in 10.0 mi ESE 11.5 mph - N/A   Clear
10:15 PM 50.0 °F - 33.8 °F 54% 30.03 in 10.0 mi ESE 10.4 mph - N/A   Clear
10:35 PM 50.0 °F - 32.0 °F 50% 30.03 in 10.0 mi ESE 12.7 mph - N/A   Clear
10:55 PM 50.0 °F - 33.8 °F 54% 30.03 in 10.0 mi ESE 9.2 mph - N/A   Clear
11:15 PM 50.0 °F - 32.0 °F 50% 30.03 in 10.0 mi ESE 8.1 mph - N/A   Clear
11:35 PM 50.0 °F - 32.0 °F 50% 30.02 in 10.0 mi ESE 8.1 mph - N/A   Clear
11:55 PM 51.8 °F - 32.0 °F 47% 30.02 in 10.0 mi SE 6.9 mph - N/A   Clear